Regional Weather Roundup
Issued by NWS State College, PA

Home | Current Version | Previous Version | Text Only | Print | Product List | Glossary On
Versions: 1 2 3 4 5 6 7 8 9 10 11 12 13 14 15 16 17 18 19 20 21 22 23 24 25 26 27 28 29 30 31 32 33 34 35 36 37 38 39 40 41 42 43 44 45 46 47 48 49 50
986
ASUS41 KCTP 080810
RWRCTP

REGIONAL WEATHER ROUNDUP
NATIONAL WEATHER SERVICE STATE COLLEGE PA
300 AM EST MON FEB 08 2016

Note: "fair" indicates few or no clouds below 12,000 feet with no
significant weather and/or obstructions to visibility.

* = STATION THAT DOES NOT REPORT PRECIPITATION /E.G. RAIN...SNOW...ETC/
    THUNDER OR FOG.

PAZ002>004-007>009-013>016-020>023-029>032-080900-
WESTERN PENNSYLVANIA

CITY           SKY/WX    TMP DP  RH WIND       PRES   REMARKS
ERIE           PTCLDY    41  23  48 S13       29.72F
MEADVILLE      MOCLDY    37  22  54 VRB5      29.71F
FRANKLIN*      CLEAR     34  21  60 S6        29.74F
NEW CASTLE     FAIR      35  23  61 VRB5      29.73F
BEAVER COUNTY  NOT AVBL
BUTLER*        CLEAR     28  21  74 CALM      29.78F
PITTSBURGH INT PTCLDY    34  22  61 S3        29.74F
PITTSBURGH     CLEAR     36  23  59 S8        29.74F
INDIANA*       MOCLDY    28  27  93 CALM      29.79F
LATROBE        CLEAR     28  25  86 CALM      29.77F
WASHINGTON CO* CLEAR     27  21  80 CALM      29.75F
$$

PAZ004>006-010>012-017>019-024>028-033>037-041-042-045-046-049>053-080900-
CENTRAL PENNSYLVANIA

CITY           SKY/WX    TMP DP  RH WIND       PRES   REMARKS
BRADFORD       PTCLDY    29  22  75 SE3       29.74F
DUBOIS         CLOUDY    32  22  66 SE6       29.74F
CLEARFIELD     CLOUDY    26  22  84 CALM      29.77F
JOHNSTOWN      PTCLDY    31  18  58 S5        29.73F
ALTOONA        CLEAR     26  20  77 CALM      29.78F
STATE COLLEGE  CLOUDY    26  22  85 CALM      29.80F
WILLIAMSPORT   CLEAR     25  21  85 W5        29.83F
SELINSGROVE    CLOUDY    24  21  88 CALM      29.82F
FT INDIANTOWN  PTCLDY    34  20  57 NE6       29.79F
CAPITAL CITY   CLOUDY    26  19  74 W3        29.80F
HARRISBURG     PTCLDY    31  23  72 NW7       29.79F
YORK           PTCLDY    24  20  84 CALM      29.78F
$$

PAZ038>040-043-044-047-048-054-055-060>062-067>071-080900-
EASTERN PENNSYLVANIA

CITY           SKY/WX    TMP DP  RH WIND       PRES   REMARKS
SCRANTON       CLOUDY    34  20  56 NE7       29.79F
MOUNT POCONO   CLOUDY    30  19  63 NE15      29.75F
ALLENTOWN      CLOUDY    35  20  54 NE7       29.79F
QUAKERTOWN*    PTSUNNY   36  19  51 NE8       29.77F
READING        PTCLDY    34  19  54 NE5       29.77F
LANCASTER      PTCLDY    33  22  63 N10       29.78F
COATESVILLE    CLOUDY    36  21  55 N9G15     29.75F
POTTSTOWN      MOCLDY    35  20  54 N10       29.77F
BLUE BELL        N/A     34  23  64 NE6       29.75F
DOYLESTOWN     CLOUDY    34  20  56 N10       29.75F
WILLOW GROVE   NOT AVBL
NORTH PHILA    CLOUDY    38  23  55 N15       29.76F
PHILADELPHIA   CLOUDY    39  22  50 N18G29    29.75F
$$




USA.gov is the U.S. government's official web portal to all federal, state and local government web resources and services.